CZ-6A DEB, 69092

Orbit data source: Space-Track

CZ-6A DEB, 69092 is space debris in SSO originally from a launch on Fri, 11 Nov 2022 UTC launched from the Taiyaun Space Center, China (TSC). Debris objects in space refer to the collection of defunct objects orbiting the Earth. Examples of debris include non-operational satellites, rocket bodies, and fragments generated from explosions, collisions, or faulty payload assembly.

Loading next visibility...
Identifier
69092, 2022-151AJK
Orbit
SSO
Country
Flag of CNCN / PRC
Related business
Manufacturer
SAST
Mission
Spacecraft
Bus & Motor
Unknown
Mass
Unknown
Launch date (UTC)
2022-11-11 (4 years ago)
Launch vehicle
Unknown
Launch site
Taiyaun Space Center, China (TSC)
Object type
Payload
Rocket body
Debris
Shape & HBR
Unknown shape, 0.1 m
Radar Cross Section
Small (<0.1 m²)

Expand to show TLE details & history
Last TLE update: 14 hours ago

TLE from 14 hours ago
0 CZ-6A DEB
1 69092U 22151AJK 26263.02389253  .00004001  00000-0  14129-2 0  9992
2 69092  98.8346 291.8572 0026772   3.1398 356.9949 14.35066707175049
Epoch: 2026-09-20T00:34Z
TLE epoch observation values (Epoch: 2026-09-20T00:34:24.314Z)
Latitude
-0.00009°
Longitude
-75.66811°
Altitude
758.648 km
Speed
7.485 km/s
True Right ascension
19h 27m 25s
True Declination
0° 00' 00"
Sunlit
Object was in daylight at epoch
Visualization orbit readout
Latitude
Unknown
Longitude
Unknown
Altitude
Unknown
Speed
Unknown
Apparent Right ascension
Unknown
Apparent Declination
Unknown
Sunlit
N/A
Visualization observer readout
Local Sidereal Time
07:58:03
Azimuth
Unknown
Elevation
Unknown
Doppler factor
Unknown
Orbital elements
Apogee altitude
791.132 km
Perigee altitude
752.847 km
Semi-major axis
7,150.126 km
Eccentricity
0.00268
Inclination
98.8346°
RAAN
291.8572°
Arg. of periapsis
3.1398°
True anomaly
356.97876°
Mean anomaly
356.9949°
Eccentric anomaly
356.98684°
Mean motion
3.58982 °/min
Orbital period
100.28 mins
BSTAR
0.0014129
Loading maneuver chart data...
Computing Atmospheric mass density...
Loading historical data...
Loading historical data...
Loading historical data...
Loading historical data...
Loading historical data...
Loading historical data...
Loading historical data...

Documentation

Showing up to 5 results
|